Regional Weather Roundup
Issued by NWS

Home | Current Version | Previous Version | Graphics & Text | Print | Product List | Glossary On
Versions: 1 2 3 4 5 6 7 8 9 10 11 12 13 14 15 16 17 18 19 20 21 22 23 24 25 26 27 28 29 30 31 32 33 34 35 36 37 38 39 40 41 42 43 44 45 46 47 48 49 50
000
ASUS43 KDMX 010708
RWRIA

WEATHER ROUNDUP FOR IOWA
NATIONAL WEATHER SERVICE DES MOINES IA
200 AM CDT SUN MAY 01 2016

NOTE: "FAIR" INDICATES FEW OR NO CLOUDS BELOW 12,000 FEET WITH NO
SIGNIFICANT WEATHER AND/OR OBSTRUCTIONS TO VISIBILITY.

* - THESE STATIONS ARE NOT NWS STATIONS...THUS NOT UNDER NWS
QUALITY CONTROL.  THEY ALSO DO NOT REPORT WEATHER SUCH
AS PRECIPITATION OR FOG.

IAZ001>003-012>014-020>022-031>034-043>046-010800-
   NORTHWEST IOWA

CITY           SKY/WX    TMP DP  RH WIND       PRES   REMARKS
CARROLL *      CLOUDY    43  43 100 E15       29.96S FOG
CHEROKEE *     CLOUDY    43  41  93 NE15G22   30.01S
DENISON *      CLOUDY    43  43 100 NE21G26   29.94S FOG
LE MARS *      CLOUDY    45  41  87 NE12G17   30.03S
ORANGE CITY *  CLOUDY    43  41  93 E10G21    30.03R
SHELDON *      CLOUDY    43  41  93 NE22G28   30.03R
SIOUX CITY     LGT RAIN  45  41  86 NE14      30.01R
SPENCER        CLOUDY    42  40  92 NE18      30.04S FOG
STORM LAKE *   CLOUDY    41  41 100 NE22G29   30.00R
$$

IAZ055>058-069>071-079>083-090>094-010800-
   SOUTHWEST IOWA

CITY           SKY/WX    TMP DP  RH WIND       PRES   REMARKS
ATLANTIC *     CLOUDY    45  43  93 NE12      29.92S
AUDUBON *        N/A     43  41  93 E16       29.95S
CLARINDA *       N/A    N/A N/A N/A MISG        N/A
COUNCIL BLFS * CLOUDY    46  46 100 NE14G20   29.91S FOG
CRESTON *      CLOUDY    45  45 100 E15       29.92S FOG
HARLAN  *      CLOUDY    45  43  93 NE12G21   29.96F
LAMONI         FOG       47  47 100 NE12      29.89S VSB 1/2
RED OAK *      CLOUDY    48  46  93 NE14      29.91S
SHENANDOAH *   CLOUDY    50  50 100 NE10      29.90S FOG
$$

IAZ047>049-059>061-072>074-084-010800-
   CENTRAL IOWA

CITY           SKY/WX    TMP DP  RH WIND       PRES   REMARKS
AMES           CLOUDY    44  43  96 E8        29.96S
ANKENY *       CLOUDY    45  45 100 NE9       29.95S FOG
BOONE *        CLOUDY    43  43 100 E16       29.95S
CHARITON *     CLOUDY    46  46 100 NE9       29.91F FOG
DES MOINES     DRIZZLE   46  43  89 E10       29.94S FOG
GRINNELL*      LGT RAIN  43  43 100 NE10      29.94F
KNOXVILLE *    CLOUDY    45  45 100 E7        29.93R FOG
MARSHALLTOWN   CLOUDY    44  42  93 E14       29.96S FOG
NEWTON *       CLOUDY    45  45 100 NE14      29.94S
PELLA *        CLOUDY    45  45 100 NE3       29.95R FOG
$$

IAZ004>006-015-016-023>025-035-036-010800-
   NORTH CENTRAL IOWA

CITY           SKY/WX    TMP DP  RH WIND       PRES   REMARKS
ALGONA *       MIX PCPN  43  41  93 NE14      30.03S
CLARION *      CLOUDY    43  43 100 NE16G23   30.00S FOG
ESTHERVILLE    LGT RAIN  42  40  92 NE20      30.05S FOG
FORT DODGE *   CLOUDY    43  37  81 NE12      30.00S
MASON CITY     LGT RAIN  41  40  96 NE14      30.03F FOG
FOREST CITY *  LGT RAIN  41  41 100 NE10      30.03S
WEBSTER CITY * CLOUDY    43  43 100 NE12      29.97S FOG
IOWA FALLS *   DRIZZLE   45  43  93 NE10G18   29.99S
$$

IAZ007>011-017>019-026>030-037>042-050>054-066-010800-
   NORTHEAST IOWA

CITY           SKY/WX    TMP DP  RH WIND       PRES   REMARKS
CEDAR RAPIDS   LGT RAIN  44  44 100 NE12      29.94S FOG
CHARLES CITY * CLOUDY    43  43 100 NE16      30.01S
CLINTON *      LGT RAIN  45  44  97 E13       29.93F FOG
DECORAH *      CLOUDY    43  41  93 NE9       30.01S
DUBUQUE        CLOUDY    43  42  97 NE12      29.96R FOG
MONTICELLO *   CLOUDY    45  43  93 NE8G15    29.95S FOG
OELWEIN *      CLOUDY    43  43 100 NE16      29.98S FOG
WATERLOO       CLOUDY    44  42  93 NE12      29.98S FOG
$$

IAZ064-065-067-068-078-010800-
   EAST CENTRAL IOWA

CITY           SKY/WX    TMP DP  RH WIND       PRES   REMARKS
DAVENPORT      CLOUDY    45  44  97 E12       29.92F FOG
IOWA CITY      CLOUDY    45  44  97 NE10      29.95S
MT. PLEASANT * CLOUDY    48  48 100 NE9       29.91S FOG
MUSCATINE *    CLOUDY    46  45  93 NE9       29.93S FOG
QUAD CITIES    CLOUDY    47  44  90 NE12      29.91S FOG
$$

IAZ062-063-075>077-085>089-095>099-010800-
   SOUTHEAST IOWA

CITY           SKY/WX    TMP DP  RH WIND       PRES   REMARKS
BURLINGTON     CLOUDY    47  47 100 NE9       29.89S FOG
FAIRFIELD *    CLOUDY    46  45  93 NE8       29.92R FOG
FORT MADISON * FOG       46  46 100 NE7       29.90S VSB 1
KEOKUK *       CLOUDY    50  48  93 VRB6      29.88S FOG
OSKALOOSA *    CLOUDY    45  43  93 E10       29.93S FOG
OTTUMWA        CLOUDY    45  44  97 NE10      29.92S FOG
WASHINGTON *   CLOUDY    46  46 100 NE9       29.94R FOG
$$

ABBREVIATIONS USED IN REMARKS
   TC - TEMPERATURES IN CELSIUS
  WCI - WIND CHILL INDEX
   HX - HEAT INDEX
  VSB - VISIBILITY
$$




USA.gov is the U.S. government's official web portal to all federal, state and local government web resources and services.